When you browse on this site, cookies collect data to enhance your experience and personalize the content and advertising you see.
Visit our Privacy Policy to learn more. By continuing to use the site, you agree to this use of cookies and data.
  • In Latvia
  • List of Countries
  • For 7 days
  • Water Temperature
  • Weather Map
  • Weather Widgets
  • user-avatar
    Login

    Hourly Weather Havana

    Today, 2 April, Thursday

    Time Temperature Precipitation Wind Pressure Humidity
    00:00 +25°C° 0 mm 4 mps 759 mmHg 83%
    01:00 +23°C° 0 mm 5 mps 758 mmHg 84%
    02:00 +23°C° 0 mm 5 mps 758 mmHg 80%
    03:00 +23°C° 0 mm 5 mps 758 mmHg 75%
    04:00 +22°C° 0 mm 5 mps 758 mmHg 70%
    05:00 +22°C° 0 mm 5 mps 759 mmHg 70%
    06:00 +22°C° 0 mm 4 mps 759 mmHg 69%
    07:00 +22°C° 0 mm 4 mps 760 mmHg 68%
    08:00 +23°C° 0 mm 4 mps 760 mmHg 60%
    09:00 +26°C° 0 mm 4 mps 760 mmHg 52%
    10:00 +28°C° 0 mm 4 mps 761 mmHg 45%
    11:00 +29°C° 0 mm 4 mps 760 mmHg 43%
    12:00 +29°C° 0 mm 4 mps 760 mmHg 42%
    13:00 +30°C° 0 mm 4 mps 760 mmHg 40%
    14:00 +30°C° 0 mm 4 mps 759 mmHg 40%
    15:00 +29°C° 0 mm 4 mps 759 mmHg 40%
    16:00 +29°C° 0 mm 4 mps 758 mmHg 40%
    17:00 +27°C° 0 mm 3 mps 758 mmHg 48%
    18:00 +25°C° 0 mm 3 mps 759 mmHg 55%
    19:00 +22°C° 0 mm 3 mps 759 mmHg 62%
    20:00 +22°C° 0 mm 3 mps 759 mmHg 65%
    21:00 +21°C° 0 mm 3 mps 760 mmHg 67%
    22:00 +20°C° 0 mm 3 mps 760 mmHg 70%
    23:00 +20°C° 0 mm 3 mps 760 mmHg 74%

    Tomorrow, 3 April, Friday

    Time Temperature Precipitation Wind Pressure Humidity
    00:00 +20°C° 0 mm 3 mps 760 mmHg 77%
    01:00 +20°C° 0 mm 3 mps 759 mmHg 81%
    02:00 +20°C° 0 mm 3 mps 759 mmHg 82%
    03:00 +19°C° 0 mm 3 mps 759 mmHg 84%
    04:00 +19°C° 0 mm 3 mps 759 mmHg 85%
    05:00 +20°C° 0 mm 3 mps 759 mmHg 83%
    06:00 +20°C° 0 mm 3 mps 760 mmHg 81%
    07:00 +20°C° 0 mm 3 mps 760 mmHg 79%
    08:00 +23°C° 0 mm 4 mps 760 mmHg 68%
    09:00 +26°C° 0 mm 4 mps 761 mmHg 57%
    10:00 +29°C° 0 mm 5 mps 761 mmHg 46%
    11:00 +30°C° 0 mm 6 mps 761 mmHg 42%
    12:00 +32°C° 0 mm 6 mps 760 mmHg 39%
    13:00 +34°C° 0 mm 7 mps 760 mmHg 35%
    14:00 +33°C° 0 mm 7 mps 760 mmHg 41%
    15:00 +30°C° 0 mm 7 mps 759 mmHg 46%
    16:00 +29°C° 0 mm 8 mps 759 mmHg 52%
    17:00 +28°C° 0 mm 7 mps 759 mmHg 58%
    18:00 +26°C° 0 mm 7 mps 759 mmHg 63%
    19:00 +24°C° 0 mm 6 mps 759 mmHg 69%
    20:00 +23°C° 0 mm 6 mps 759 mmHg 72%
    21:00 +22°C° 0 mm 6 mps 760 mmHg 75%
    22:00 +21°C° 0 mm 6 mps 760 mmHg 78%
    23:00 +21°C° 0 mm 5 mps 760 mmHg 79%

    Day after tomorrow, 4 April, Saturday

    Time Temperature Precipitation Wind Pressure Humidity
    00:00 +21°C° 0 mm 5 mps 760 mmHg 81%
    01:00 +20°C° 0 mm 5 mps 759 mmHg 82%
    02:00 +20°C° 0 mm 5 mps 759 mmHg 81%
    03:00 +20°C° 0 mm 5 mps 759 mmHg 80%
    04:00 +20°C° 0 mm 5 mps 759 mmHg 78%
    05:00 +20°C° 0 mm 5 mps 759 mmHg 78%
    06:00 +20°C° 0 mm 5 mps 759 mmHg 78%
    07:00 +20°C° 0 mm 5 mps 760 mmHg 78%
    08:00 +23°C° 0 mm 5 mps 760 mmHg 68%
    09:00 +27°C° 0 mm 5 mps 760 mmHg 58%
    10:00 +29°C° 0 mm 5 mps 761 mmHg 49%
    11:00 +32°C° 0 mm 6 mps 760 mmHg 43%
    12:00 +33°C° 0 mm 6 mps 760 mmHg 38%
    13:00 +34°C° 0 mm 6 mps 760 mmHg 33%
    14:00 +34°C° 0 mm 7 mps 759 mmHg 36%
    15:00 +33°C° 0 mm 7 mps 759 mmHg 39%
    16:00 +33°C° 0 mm 7 mps 758 mmHg 42%
    17:00 +30°C° 0 mm 7 mps 758 mmHg 48%
    18:00 +28°C° 0 mm 7 mps 758 mmHg 55%
    19:00 +26°C° 0 mm 7 mps 759 mmHg 62%
    20:00 +24°C° 0 mm 7 mps 759 mmHg 64%
    21:00 +23°C° 0 mm 6 mps 759 mmHg 65%
    22:00 +22°C° 0 mm 6 mps 760 mmHg 66%
    23:00 +22°C° 0 mm 6 mps 760 mmHg 66%

    5 April, Sunday

    Time Temperature Precipitation Wind Pressure Humidity
    00:00 +22°C° 0 mm 6 mps 760 mmHg 66%
    01:00 +22°C° 0 mm 6 mps 760 mmHg 65%
    02:00 +21°C° 0 mm 5 mps 759 mmHg 67%
    03:00 +21°C° 0 mm 5 mps 759 mmHg 69%
    04:00 +21°C° 0 mm 5 mps 759 mmHg 70%
    05:00 +21°C° 0 mm 5 mps 759 mmHg 72%
    06:00 +21°C° 0 mm 5 mps 759 mmHg 74%
    07:00 +21°C° 0 mm 5 mps 760 mmHg 75%
    08:00 +25°C° 0 mm 5 mps 760 mmHg 66%
    09:00 +28°C° 0 mm 5 mps 760 mmHg 58%
    10:00 +30°C° 0 mm 4 mps 761 mmHg 49%
    11:00 +32°C° 0 mm 5 mps 760 mmHg 45%
    12:00 +34°C° 0 mm 5 mps 760 mmHg 42%
    13:00 +35°C° 0 mm 5 mps 760 mmHg 39%
    14:00 +34°C° 0 mm 5 mps 760 mmHg 42%
    15:00 +34°C° 0 mm 5 mps 759 mmHg 45%
    16:00 +33°C° 0 mm 5 mps 759 mmHg 49%
    17:00 +30°C° 0 mm 5 mps 759 mmHg 56%
    18:00 +28°C° 0 mm 5 mps 759 mmHg 64%
    19:00 +27°C° 0 mm 5 mps 760 mmHg 72%
    20:00 +26°C° 0 mm 5 mps 760 mmHg 75%
    21:00 +25°C° 0 mm 4 mps 761 mmHg 78%
    22:00 +24°C° 0 mm 3 mps 761 mmHg 82%
    23:00 +23°C° 0 mm 4 mps 761 mmHg 80%

    6 April, Monday

    Time Temperature Precipitation Wind Pressure Humidity
    00:00 +23°C° 0 mm 4 mps 761 mmHg 79%
    01:00 +22°C° 0 mm 4 mps 761 mmHg 77%
    02:00 +22°C° 0 mm 4 mps 760 mmHg 78%
    03:00 +22°C° 0 mm 4 mps 760 mmHg 79%
    04:00 +21°C° 0 mm 4 mps 760 mmHg 80%
    05:00 +22°C° 0 mm 4 mps 761 mmHg 79%
    06:00 +22°C° 0 mm 4 mps 761 mmHg 79%
    07:00 +22°C° 0 mm 4 mps 761 mmHg 78%
    08:00 +26°C° 0 mm 4 mps 762 mmHg 70%
    09:00 +28°C° 0 mm 4 mps 762 mmHg 62%
    10:00 +31°C° 0 mm 3 mps 763 mmHg 53%
    11:00 +33°C° 0 mm 4 mps 763 mmHg 49%
    12:00 +34°C° 0 mm 4 mps 762 mmHg 45%
    13:00 +36°C° 0 mm 5 mps 762 mmHg 41%
    14:00 +35°C° 0 mm 5 mps 762 mmHg 45%
    15:00 +34°C° 0 mm 5 mps 761 mmHg 49%
    16:00 +33°C° 0 mm 5 mps 761 mmHg 54%
    17:00 +30°C° 0 mm 5 mps 761 mmHg 59%
    18:00 +29°C° 0 mm 6 mps 761 mmHg 64%
    19:00 +27°C° 0 mm 6 mps 762 mmHg 69%
    20:00 +27°C° 0 mm 6 mps 762 mmHg 71%
    21:00 +26°C° 0 mm 6 mps 762 mmHg 72%
    22:00 +25°C° 0 mm 5 mps 763 mmHg 73%
    23:00 +24°C° 0 mm 6 mps 762 mmHg 72%

    7 April, Tuesday

    Time Temperature Precipitation Wind Pressure Humidity
    00:00 +24°C° 0 mm 6 mps 762 mmHg 72%
    01:00 +24°C° 0 mm 6 mps 762 mmHg 71%
    02:00 +23°C° 0 mm 6 mps 762 mmHg 74%
    03:00 +22°C° 0 mm 6 mps 762 mmHg 77%
    04:00 +22°C° 0 mm 5 mps 762 mmHg 80%
    05:00 +22°C° 0 mm 6 mps 762 mmHg 80%
    06:00 +22°C° 0 mm 6 mps 762 mmHg 81%
    07:00 +22°C° 0 mm 6 mps 763 mmHg 81%
    08:00 +26°C° 0 mm 6 mps 763 mmHg 69%
    09:00 +29°C° 0 mm 6 mps 763 mmHg 57%
    10:00 +32°C° 0 mm 5 mps 763 mmHg 45%
    11:00 +34°C° 0 mm 5 mps 763 mmHg 42%
    12:00 +35°C° 0 mm 6 mps 763 mmHg 39%
    13:00 +36°C° 0 mm 6 mps 763 mmHg 35%
    14:00 +35°C° 0 mm 6 mps 762 mmHg 40%
    15:00 +35°C° 0 mm 6 mps 762 mmHg 45%
    16:00 +34°C° 0 mm 7 mps 761 mmHg 50%
    17:00 +32°C° 0 mm 7 mps 762 mmHg 56%
    18:00 +29°C° 0 mm 6 mps 762 mmHg 63%
    19:00 +27°C° 0 mm 6 mps 762 mmHg 70%
    20:00 +26°C° 0 mm 6 mps 763 mmHg 72%
    21:00 +26°C° 0 mm 6 mps 763 mmHg 74%
    22:00 +24°C° 0 mm 6 mps 763 mmHg 77%
    23:00 +25°C° 0 mm 5 mps 763 mmHg 78%
    Show more